Time,TemperatureF,DewpointF,PressureIn,WindDirection,WindDirectionDegrees,WindSpeedMPH,WindSpeedGustMPH,Humidity,HourlyPrecipIn,Conditions,Clouds,dailyrainin,SoftwareType,DateUTC
2013-07-31 00:00:00,84.0,-99.9,30.07,South,190,14.0,-999.0,-999,-99.99,,,-99.99,,2013-07-31 05:00:00,
2013-07-31 00:52:00,84.0,-99.9,30.07,South,190,14.0,-999.0,-999,-99.99,,,-99.99,,2013-07-31 05:52:00,
2013-07-31 01:00:00,84.0,-99.9,30.06,South,190,14.0,-999.0,-999,-99.99,,,-99.99,,2013-07-31 06:00:00,
2013-07-31 01:30:00,84.0,-99.9,30.06,SSW,200,13.0,-999.0,-999,-99.99,,,-99.99,,2013-07-31 06:30:00,
2013-07-31 01:53:00,84.0,-99.9,30.06,South,190,14.0,-999.0,-999,-99.99,,,-99.99,,2013-07-31 06:53:00,
2013-07-31 02:00:00,84.0,-99.9,30.05,SSW,200,12.0,-999.0,-999,-99.99,,,-99.99,,2013-07-31 07:00:00,
2013-07-31 02:30:00,84.0,-99.9,30.05,SSW,200,12.0,-999.0,-999,-99.99,,,-99.99,,2013-07-31 07:30:00,
2013-07-31 02:52:00,84.0,-99.9,30.05,SSW,200,12.0,-999.0,-999,-99.99,,,-99.99,,2013-07-31 07:52:00,
2013-07-31 03:00:00,84.0,-99.9,30.04,SW,220,13.0,-999.0,-999,-99.99,,,-99.99,,2013-07-31 08:00:00,
2013-07-31 03:53:00,84.0,-99.9,30.04,SW,220,13.0,-999.0,-999,-99.99,,,-99.99,,2013-07-31 08:53:00,
2013-07-31 04:00:00,84.0,-99.9,30.03,SW,230,14.0,-999.0,-999,-99.99,,,-99.99,,2013-07-31 09:00:00,
2013-07-31 04:52:00,84.0,-99.9,30.03,SW,230,14.0,-999.0,-999,-99.99,,,-99.99,,2013-07-31 09:52:00,
2013-07-31 05:00:00,83.0,-99.9,30.04,SW,230,13.0,-999.0,-999,-99.99,,,-99.99,,2013-07-31 10:00:00,
2013-07-31 05:52:00,83.0,-99.9,30.04,SW,230,13.0,-999.0,-999,-99.99,,,-99.99,,2013-07-31 10:52:00,
2013-07-31 06:00:00,83.0,-99.9,30.04,West,270,12.0,-999.0,-999,-99.99,,,-99.99,,2013-07-31 11:00:00,
2013-07-31 06:30:00,83.0,-99.9,30.05,West,270,8.0,-999.0,-999,-99.99,,,-99.99,,2013-07-31 11:30:00,
2013-07-31 06:53:00,83.0,-99.9,30.04,West,270,12.0,-999.0,-999,-99.99,,,-99.99,,2013-07-31 11:53:00,
2013-07-31 07:00:00,83.0,-99.9,30.06,West,270,8.0,-999.0,-999,-99.99,,,-99.99,,2013-07-31 12:00:00,
2013-07-31 07:30:00,82.0,-99.9,30.06,West,280,9.0,-999.0,-999,-99.99,,,-99.99,,2013-07-31 12:30:00,
2013-07-31 07:53:00,83.0,-99.9,30.06,West,270,8.0,-999.0,-999,-99.99,,,-99.99,,2013-07-31 12:53:00,
2013-07-31 08:00:00,83.0,-99.9,30.06,West,280,10.0,-999.0,-999,-99.99,,,-99.99,,2013-07-31 13:00:00,
2013-07-31 08:30:00,83.0,-99.9,30.07,West,280,12.0,-999.0,-999,-99.99,,,-99.99,,2013-07-31 13:30:00,
2013-07-31 08:53:00,83.0,-99.9,30.06,West,280,10.0,-999.0,-999,-99.99,,,-99.99,,2013-07-31 13:53:00,
2013-07-31 09:00:00,83.0,-99.9,30.08,West,280,14.0,-999.0,-999,-99.99,,,-99.99,,2013-07-31 14:00:00,
2013-07-31 09:30:00,83.0,-99.9,30.08,WNW,290,12.0,-999.0,-999,-99.99,,,-99.99,,2013-07-31 14:30:00,
2013-07-31 09:53:00,83.0,-99.9,30.08,West,280,14.0,-999.0,-999,-99.99,,,-99.99,,2013-07-31 14:53:00,
2013-07-31 10:00:00,83.0,-99.9,30.07,WNW,290,13.0,-999.0,-999,-99.99,,,-99.99,,2013-07-31 15:00:00,
2013-07-31 10:30:00,83.0,-99.9,30.08,WNW,290,10.0,-999.0,-999,-99.99,,,-99.99,,2013-07-31 15:30:00,
2013-07-31 10:53:00,83.0,-99.9,30.07,WNW,290,13.0,-999.0,-999,-99.99,,,-99.99,,2013-07-31 15:53:00,
2013-07-31 11:00:00,84.0,-99.9,30.08,WNW,290,10.0,-999.0,-999,-99.99,,,-99.99,,2013-07-31 16:00:00,
2013-07-31 11:30:00,84.0,-99.9,30.07,West,280,12.0,-999.0,-999,-99.99,,,-99.99,,2013-07-31 16:30:00,
2013-07-31 11:53:00,84.0,-99.9,30.08,WNW,290,10.0,-999.0,-999,-99.99,,,-99.99,,2013-07-31 16:53:00,
2013-07-31 12:00:00,84.0,-99.9,30.06,West,280,8.0,-999.0,-999,-99.99,,,-99.99,,2013-07-31 17:00:00,
2013-07-31 12:30:00,83.0,-99.9,30.06,SSW,200,12.0,-999.0,-999,-99.99,,,-99.99,,2013-07-31 17:30:00,
2013-07-31 12:53:00,84.0,-99.9,30.06,West,280,8.0,-999.0,-999,-99.99,,,-99.99,,2013-07-31 17:53:00,
2013-07-31 13:00:00,82.0,-99.9,30.04,SSW,210,13.0,-999.0,-999,-99.99,,,-99.99,,2013-07-31 18:00:00,
2013-07-31 13:52:00,82.0,-99.9,30.04,SSW,210,13.0,-999.0,-999,-99.99,,,-99.99,,2013-07-31 18:52:00,
2013-07-31 14:00:00,84.0,-99.9,30.01,WSW,250,12.0,-999.0,-999,-99.99,,,-99.99,,2013-07-31 19:00:00,
2013-07-31 14:53:00,84.0,-99.9,30.01,WSW,250,12.0,-999.0,-999,-99.99,,,-99.99,,2013-07-31 19:53:00,
2013-07-31 15:30:00,86.0,-99.9,29.98,South,180,1.0,-999.0,-999,-99.99,,,-99.99,,2013-07-31 20:30:00,
2013-07-31 16:00:00,85.0,-99.9,29.97,NNE,30,8.0,-999.0,-999,-99.99,,,-99.99,,2013-07-31 21:00:00,
2013-07-31 16:53:00,85.0,-99.9,29.97,NNE,30,8.0,-999.0,-999,-99.99,,,-99.99,,2013-07-31 21:53:00,
2013-07-31 17:00:00,81.0,-99.9,29.98,NNW,330,12.0,-999.0,-999,-99.99,,,-99.99,,2013-07-31 22:00:00,
2013-07-31 17:30:00,82.0,-99.9,29.96,WSW,250,7.0,-999.0,-999,-99.99,,,-99.99,,2013-07-31 22:30:00,
2013-07-31 17:53:00,81.0,-99.9,29.98,NNW,330,12.0,-999.0,-999,-99.99,,,-99.99,,2013-07-31 22:53:00,
2013-07-31 18:00:00,84.0,-99.9,29.97,South,170,6.0,-999.0,-999,-99.99,,,-99.99,,2013-07-31 23:00:00,
2013-07-31 18:53:00,84.0,-99.9,29.97,South,170,6.0,-999.0,-999,-99.99,,,-99.99,,2013-07-31 23:53:00,
2013-07-31 19:00:00,83.0,-99.9,29.98,South,180,10.0,-999.0,-999,-99.99,,,-99.99,,2013-08-01 00:00:00,
2013-07-31 19:30:00,84.0,-99.9,29.98,South,170,9.0,-999.0,-999,-99.99,,,-99.99,,2013-08-01 00:30:00,
2013-07-31 19:53:00,83.0,-99.9,29.98,South,180,10.0,-999.0,-999,-99.99,,,-99.99,,2013-08-01 00:53:00,
2013-07-31 20:00:00,84.0,-99.9,29.98,South,180,8.0,-999.0,-999,-99.99,,,-99.99,,2013-08-01 01:00:00,
2013-07-31 20:30:00,84.0,-99.9,29.99,SW,220,10.0,-999.0,-999,-99.99,,,-99.99,,2013-08-01 01:30:00,
2013-07-31 20:53:00,84.0,-99.9,29.98,South,180,8.0,-999.0,-999,-99.99,,,-99.99,,2013-08-01 01:53:00,
2013-07-31 21:00:00,83.0,-99.9,29.99,WSW,250,8.0,-999.0,-999,-99.99,,,-99.99,,2013-08-01 02:00:00,
2013-07-31 21:53:00,83.0,-99.9,29.99,WSW,250,8.0,-999.0,-999,-99.99,,,-99.99,,2013-08-01 02:53:00,
2013-07-31 22:00:00,84.0,-99.9,29.99,SW,220,10.0,-999.0,-999,-99.99,,,-99.99,,2013-08-01 03:00:00,
2013-07-31 22:30:00,84.0,-99.9,29.99,SSW,210,13.0,-999.0,-999,-99.99,,,-99.99,,2013-08-01 03:30:00,
2013-07-31 22:53:00,84.0,-99.9,29.99,SW,220,10.0,-999.0,-999,-99.99,,,-99.99,,2013-08-01 03:53:00,
2013-07-31 23:00:00,84.0,-99.9,29.99,SSW,200,15.0,-999.0,-999,-99.99,,,-99.99,,2013-08-01 04:00:00,
2013-07-31 23:30:00,84.0,-99.9,29.99,SSW,200,16.0,-999.0,-999,-99.99,,,-99.99,,2013-08-01 04:30:00,
2013-07-31 23:53:00,84.0,-99.9,29.99,SSW,200,15.0,-999.0,-999,-99.99,,,-99.99,,2013-08-01 04:53:00,